Home > Weather > Madrid > Past weeks

Flag for Spain Weather for the Past 2 Weeks in Madrid, Spain

Now
59 °F

Scattered clouds.


Feels Like: 55 °F
Forecast: 47 / 59 °F
Wind: 20 mph from West

Location: Madrid / Cuatro Vientos

Current Time: Feb 11, 2016 at 6:55:49 PM

Latest Report: Feb 11, 2016 at 6:00 PM


Visibility: N/A

Pressure: 29.92 "Hg (27.67 "Hg at 658m altitude)

Humidity: 51%

Dew point: 41 °F

Location of MadridLocation

Historic Weather in Madrid — Graph

°F

Madrid Temperature Yesterday

Maximum temperature yesterday: 55 °F (at 3:00 PM)
Minimum temperature yesterday: 46 °F (at 7:00 AM)
Average temperature yesterday: 52 °F

High & Low Weather Summary for the Past Weeks

 TemperatureHumidityPressure
High66 °F (Feb 1, 3:30 PM)100% (Jan 28, 7:00 AM)30.63 "Hg (Jan 28, 7:00 AM)
Low36 °F (Feb 5, 7:30 AM)29% (Feb 3, 4:30 PM)29.89 "Hg (Feb 10, 4:00 PM)
Average50 °F75%30.32 "Hg
* Reported Jan 27 5:00 PM — Feb 11 5:30 PM, Madrid, Weather by CustomWeather, © 2016

Note: Actual official high and low records may vary slightly from our data, if they occured in-between our weather recording intervals... More about our weather records

Advertising

Madrid Weather History for the Previous 24 Hours

 ConditionsComfort  
Time TempWeatherWind HumidityBarometerVisibility
5:30 PM
Thu, Feb 11
59 °FScattered clouds.17 mph55%29.92 "HgN/A
5:00 PM59 °FScattered clouds.16 mph63%29.89 "HgN/A
4:30 PM59 °FScattered clouds.15 mph63%29.89 "HgN/A
4:00 PM61 °FScattered clouds.20 mph55%29.89 "HgN/A
3:30 PM59 °FLight rain. Partly sunny.13 mph72%29.89 "HgN/A
3:00 PM61 °FBroken clouds.12 mph72%29.89 "HgN/A
2:30 PM57 °FBroken clouds.10 mph88%29.89 "HgN/A
2:00 PM57 °FBroken clouds.16 mph88%29.92 "HgN/A
1:30 PM55 °FBroken clouds.14 mph94%29.92 "HgN/A
1:00 PM54 °FPartly sunny.14 mph100%29.92 "HgN/A
12:30 PM54 °FLight rain. Broken clouds.15 mph100%29.95 "HgN/A
12:00 PM54 °FBroken clouds.12 mph100%29.95 "HgN/A
11:30 AM52 °FRain. Low clouds.17 mph100%29.95 "Hg3 mi
11:00 AM52 °FLight rain. Low clouds.16 mph100%29.92 "HgN/A
10:30 AM52 °FRain. Low clouds.17 mph100%29.95 "Hg3 mi
10:00 AM52 °FPartly sunny.14 mph100%29.92 "HgN/A
9:30 AM52 °FRain. Low clouds.16 mph94%29.92 "Hg3 mi
9:00 AM52 °FLight rain. Low clouds.18 mph94%29.92 "Hg6 mi
8:30 AM52 °FLow clouds.18 mph94%29.92 "HgN/A
8:00 AM52 °FLow clouds.20 mph94%29.92 "HgN/A
7:30 AM52 °FLow clouds.20 mph94%29.92 "HgN/A
7:00 AM52 °FLow clouds.18 mph94%29.92 "HgN/A
8:00 PM
Wed, Feb 10
55 °FPassing clouds.12 mph88%29.95 "HgN/A
7:30 PM55 °FPassing clouds.16 mph88%29.95 "HgN/A
7:00 PM55 °FPassing clouds.20 mph88%29.92 "HgN/A
6:30 PM55 °FPartly sunny.18 mph94%29.92 "HgN/A
6:00 PM55 °FBroken clouds.22 mph94%29.89 "HgN/A
Weather by CustomWeather, © 2016

See weather overviewHow to use our weather pages